This demonstration page uses our WeatherBlox Daily Observations layout. Learn more.

Left ArrowRight Arrow

36.19886, -115.1175

Hourly Observations for April 5, 2021

Temp ( °F °C ) Dew Point ( °F °C ) Humidity (%) Winds ( mph kmh ) Pressure ( in mb ) Visibility ( mi km ) Precip ( " mm )
12:53 am 00:53 Clear 70 21.1 14 -10 11 11 N N/A 29.75 1008 10 16 N/A
1:53 am 01:53 Clear 68 20 16 -8.9 13 13 NNW 3 6 29.74 1007 10 16 N/A
2:53 am 02:53 Clear 67 19.4 12 -11.1 12 12 N N/A 29.72 1007 10 16 N/A
3:53 am 03:53 Clear 65 18.3 9 -12.8 11 11 WNW 7 11 29.72 1006 10 16 N/A
4:53 am 04:53 Clear 63 17.2 14 -10 15 15 NW 7 11 29.72 1006 10 16 N/A
5:53 am 05:53 Clear 63 17.2 10 -12.2 12 12 WNW 7 11 29.72 1006 10 16 N/A
6:53 am 06:53 Sunny 63 17.2 14 -10 15 15 W 5 7 29.74 1007 10 16 N/A
7:53 am 07:53 Sunny 70 21.1 13 -10.6 11 11 N 7 11 29.74 1007 10 16 N/A
8:53 am 08:53 Sunny 73 22.8 14 -10 10 10 N N/A 29.74 1007 10 16 N/A
9:53 am 09:53 Sunny 76 24.4 14 -10 9 9 N N/A 29.73 1007 10 16 N/A
10:53 am 10:53 Sunny 81 27.2 14 -10 8 8 VRB 3 6 29.71 1006 10 16 N/A
11:53 am 11:53 Sunny 84 28.9 13 -10.6 7 7 N N/A 29.67 1005 10 16 N/A
12:53 pm 12:53 Sunny 86 30 14 -10 7 7 N N/A 29.63 1003 10 16 N/A
1:53 pm 13:53 Sunny 90 32.2 8 -13.3 4 4 SW 26 43 29.58 1002 10 16 N/A
2:53 pm 14:53 Sunny 90 32.2 12 -11.1 5 5 W 24 39 29.56 1001 10 16 0.00 0.00
3:53 pm 15:53 Sunny 92 33.3 9 -12.8 4 4 WSW 24 39 29.52 1000 10 16 N/A
4:53 pm 16:53 Sunny 90 32.2 10 -12.2 5 5 WSW 29 46 29.52 1000 10 16 N/A
5:53 pm 17:53 Sunny 88 31.1 13 -10.6 6 6 WSW 23 37 29.52 1000 10 16 N/A
6:53 pm 18:53 Sunny 85 29.4 16 -8.9 7 7 WSW 20 31 29.53 1000 10 16 N/A
7:53 pm 19:53 Clear 83 28.3 16 -8.9 8 8 WSW 18 30 29.52 1000 10 16 N/A
8:38 pm 20:38 Clear 82 27.8 19 -7.2 9 9 WNW 18 30 29.47 998 10 16 N/A
8:53 pm 20:53 Clear 81 27.2 19 -7.2 10 10 NW 22 35 29.59 1002 10 16 N/A
9:53 pm 21:53 Clear 78 25.6 6 -14.4 6 6 NW 26 43 29.62 1003 10 16 N/A
10:53 pm 22:53 Clear 76 24.4 9 -12.8 7 7 NW 22 35 29.64 1004 10 16 N/A
11:53 pm 23:53 Clear 75 23.9 8 -13.3 7 7 NW 20 31 29.67 1005 10 16 N/A

Powered by AerisWeather